STARLINK-11440, 62513

Orbit data source: Space-Track

STARLINK-11440, 62513 is a payload satellite owned by SpaceX/Seattle (US) in LEO that was launched on Wed, 08 Jan 2025 UTC via an FALCON 9 launch vehicle from the Air Force Eastern Test Range (AFETR). Payload-class satellites include a variety of spacecraft equipped with specific instruments for various scientific and technological missions. These include communications satellites like Starlink; space stations such as the ISS; scientific satellites like the Hubble; Earth observation satellites from companies like Planet Labs, Umbra, and HawkEye 360; GPS; miniature CubeSats for education and research; and military/defense satellites.

Loading next visibility...
Identifier
62513, 2025-004C
Orbit
LEO
Country
Flag of USUS
Related business
Manufacturer
SpaceX/Seattle
Mission
Operational Commercial Communications
Bus & Motor
STARLINK V2MD, Unknown motor
Mass
960 kg wet, ~910 kg dry
Launch date (UTC)
2025-01-08 (1 year ago)
Launch vehicle
FALCON 9
Launch site
Air Force Eastern Test Range (AFETR)
Object type
Payload
Rocket body
Debris
Shape & HBR
Box + 2 Pan, 18.1 m
Radar Cross Section
36.964 m², Large (>1 m²)

Expand to show TLE details & history
Last TLE update: 1 day ago

TLE from 1 day ago
0 STARLINK-11440
1 62513U 25004C   26037.00821848  .00211671  00000-0  16085-2 0  9997
2 62513  42.9993 261.8937 0002223 240.2478 119.8169 15.70882204 62221
Epoch: 2026-02-06T00:11Z
TLE epoch observation values (Epoch: 2026-02-06T00:11:50.076Z)
Latitude
-0°
Longitude
122.78279°
Altitude
356.89 km
Speed
7.697 km/s
True Right ascension
17h 27m 34s
True Declination
0° 00' 00"
Sunlit
Object was in daylight at epoch
Visualization orbit readout
Latitude
Unknown
Longitude
Unknown
Altitude
Unknown
Speed
Unknown
Apparent Right ascension
Unknown
Apparent Declination
Unknown
Sunlit
N/A
Visualization observer readout
Local Sidereal Time
09:50:16
Azimuth
Unknown
Elevation
Unknown
Doppler factor
Unknown
Orbital elements
Apogee altitude
359.854 km
Perigee altitude
356.859 km
Semi-major axis
6,736.493 km
Eccentricity
0.00022
Inclination
42.9993°
RAAN
261.8937°
Arg. of periapsis
240.2478°
True anomaly
119.839°
Mean anomaly
119.8169°
Eccentric anomaly
119.82795°
Mean motion
3.92548 °/min
Orbital period
91.71 mins
BSTAR
0.0016085
Loading maneuver chart data...
Computing Atmospheric mass density...
Loading historical data...
Loading historical data...
Loading historical data...
Loading historical data...
Loading historical data...
Loading historical data...
Loading historical data...

Documentation

Showing up to 5 results
|